FW7003 Weather Reports


Display with metric or nautical units.
time (UTC)temp
F
wind
direction
speed
MPH
gust
MPH
rain 1hr
in
rain 24hr
in
rain mn
in
humidity
%
barometer
mb
20210917165038 85 157 3.0 3.0 0.00 0.00 0.00 10 1019.1
20210917164539 84 220 0.0 0.0 0.00 0.00 0.00 10 1019.2
20210917164037 84 189 2.0 2.0 0.00 0.00 0.00 10 1019.1
20210917163534 84 242 4.0 7.0 0.00 0.00 0.00 10 1018.9
20210917163034 84 137 5.0 6.0 0.00 0.00 0.00 10 1019.0
20210917162533 83 183 5.0 7.0 0.00 0.00 0.00 10 1019.1
20210917162029 83 171 1.0 2.0 0.00 0.00 0.00 10 1019.0
20210917161529 84 184 4.0 6.0 0.00 0.00 0.00 10 1019.1
20210917161028 84 128 1.0 2.0 0.00 0.00 0.00 10 1019.2
20210917160526 83 145 3.0 3.0 0.00 0.00 0.00 10 1019.0
20210917160022 82 192 2.0 2.0 0.00 0.00 0.00 10 1019.2
20210917155520 82 153 7.0 7.0 0.00 0.00 0.00 10 1019.0
20210917155018 82 113 1.0 2.0 0.00 0.00 0.00 10 1019.2
20210917154516 81 160 1.0 2.0 0.00 0.00 0.00 10 1019.1
20210917154009 82 162 6.0 7.0 0.00 0.00 0.00 10 1019.0
20210917153506 81 167 0.0 1.0 0.00 0.00 0.00 10 1019.2
20210917153006 82 170 4.0 5.0 0.00 0.00 0.00 10 1019.3
20210917152505 82 213 1.0 1.0 0.00 0.00 0.00 10 1019.2
20210917152003 81 141 3.0 5.0 0.00 0.00 0.00 10 1019.2
20210917151502 81 204 2.0 2.0 0.00 0.00 0.00 10 1018.8
20210917151001 81 175 3.0 3.0 0.00 0.00 0.00 10 1018.8
20210917150501 80 179 3.0 6.0 0.00 0.00 0.00 10 1018.7
20210917150000 80 198 2.0 2.0 0.00 0.00 0.00 10 1018.7
20210917145459 79 204 1.0 1.0 0.00 0.00 0.00 10 1018.6
20210917144957 79 183 2.0 3.0 0.00 0.00 0.00 10 1018.7
20210917144455 78 227 3.0 3.0 0.00 0.00 0.00 10 1018.7
20210917143954 78 253 3.0 3.0 0.00 0.00 0.00 10 1018.5
20210917143453 77 208 2.0 2.0 0.00 0.00 0.00 10 1018.4
20210917142951 77 226 3.0 5.0 0.00 0.00 0.00 10 1018.5
20210917142450 77 225 4.0 5.0 0.00 0.00 0.00 10 1018.3
20210917141949 77 240 5.0 7.0 0.00 0.00 0.00 10 1018.3
20210917141447 76 169 1.0 2.0 0.00 0.00 0.00 10 1018.3
20210917140946 77 210 2.0 3.0 0.00 0.00 0.00 10 1018.0
20210917140443 76 248 3.0 3.0 0.00 0.00 0.00 10 1018.0
20210917135942 76 201 1.0 2.0 0.00 0.00 0.00 10 1018.1
20210917135441 75 210 1.0 1.0 0.00 0.00 0.00 10 1018.2
20210917134939 75 201 0.0 0.0 0.00 0.00 0.00 10 1018.0
20210917134435 75 201 2.0 2.0 0.00 0.00 0.00 10 1017.9
20210917133934 74 163 0.0 0.0 0.00 0.00 0.00 10 1017.8
20210917133432 74 152 0.0 0.0 0.00 0.00 0.00 10 1017.8
20210917132929 74 151 2.0 2.0 0.00 0.00 0.00 10 1017.7
20210917132428 73 155 0.0 1.0 0.00 0.00 0.00 10 1017.6
20210917131926 73 167 0.0 0.0 0.00 0.00 0.00 10 1017.6
20210917131425 73 162 0.0 0.0 0.00 0.00 0.00 10 1017.5
20210917130925 72 144 0.0 0.0 0.00 0.00 0.00 10 1017.6
20210917130424 72 136 0.0 0.0 0.00 0.00 0.00 10 1017.7
20210917125921 71 134 0.0 0.0 0.00 0.00 0.00 10 1017.3
20210917125420 71 144 0.0 0.0 0.00 0.00 0.00 10 1017.6
20210917124920 71 142 0.0 0.0 0.00 0.00 0.00 10 1017.5
20210917124418 71 133 0.0 0.0 0.00 0.00 0.00 10 1017.3
20210917123917 71 138 1.0 1.0 0.00 0.00 0.00 10 1017.2
20210917123415 70 160 0.0 0.0 0.00 0.00 0.00 10 1017.1
20210917122912 70 171 0.0 0.0 0.00 0.00 0.00 10 1017.1
20210917122411 70 182 0.0 0.0 0.00 0.00 0.00 10 1017.0
20210917121908 70 208 0.0 0.0 0.00 0.00 0.00 10 1017.0
20210917121408 70 208 0.0 0.0 0.00 0.00 0.00 10 1016.9
20210917120907 71 208 0.0 0.0 0.00 0.00 0.00 10 1016.7
20210917120402 71 205 0.0 0.0 0.00 0.00 0.00 10 1017.0
20210917115901 71 184 0.0 0.0 0.00 0.00 0.00 10 1016.9
20210917115401 71 182 0.0 0.0 0.00 0.00 0.00 10 1016.6
20210917114859 71 173 0.0 0.0 0.00 0.00 0.00 10 1016.6
20210917114357 71 173 0.0 0.0 0.00 0.00 0.00 10 1016.5
20210917113855 71 174 0.0 0.0 0.00 0.00 0.00 10 1016.4
20210917113356 71 208 0.0 0.0 0.00 0.00 0.00 10 1016.7
20210917112854 71 207 0.0 0.0 0.00 0.00 0.00 10 1016.3
20210917112352 71 205 0.0 0.0 0.00 0.00 0.00 10 1016.5
20210917111851 71 210 0.0 0.0 0.00 0.00 0.00 10 1016.4
20210917111349 71 190 0.0 0.0 0.00 0.00 0.00 10 1016.2
20210917110848 71 185 0.0 1.0 0.00 0.00 0.00 10 1016.4
20210917110346 71 191 1.0 1.0 0.00 0.00 0.00 10 1016.1
20210917105843 71 209 0.0 0.0 0.00 0.00 0.00 10 1016.1
20210917105342 71 183 0.0 1.0 0.00 0.00 0.00 10 1016.2
20210917104842 71 192 1.0 1.0 0.00 0.00 0.00 10 1016.0
20210917104343 71 178 1.0 1.0 0.00 0.00 0.00 10 1016.2
20210917103840 72 192 0.0 0.0 0.00 0.00 0.00 10 1016.0
20210917103338 72 189 0.0 0.0 0.00 0.00 0.00 10 1016.0
20210917102837 72 195 0.0 0.0 0.00 0.00 0.00 10 1015.9
20210917102336 72 190 0.0 0.0 0.00 0.00 0.00 10 1016.0
20210917101834 72 204 0.0 0.0 0.00 0.00 0.00 10 1016.1
20210917101333 72 183 0.0 0.0 0.00 0.00 0.00 10 1015.9
20210917100832 72 180 0.0 0.0 0.00 0.00 0.00 10 1016.0
20210917100327 72 180 0.0 0.0 0.00 0.00 0.00 10 1015.9
20210917095825 72 173 0.0 0.0 0.00 0.00 0.00 10 1016.0
20210917095321 72 185 0.0 0.0 0.00 0.00 0.00 10 1016.0
20210917094820 72 191 0.0 0.0 0.00 0.00 0.00 10 1016.0
20210917094319 72 190 0.0 1.0 0.00 0.00 0.00 10 1015.9
20210917093818 73 179 2.0 2.0 0.00 0.00 0.00 10 1015.8
20210917093314 73 171 2.0 2.0 0.00 0.00 0.00 10 1015.9
20210917092813 73 181 3.0 3.0 0.00 0.00 0.00 10 1016.1
20210917092312 73 169 3.0 3.0 0.00 0.00 0.00 10 1015.9
20210917091810 73 192 3.0 3.0 0.00 0.00 0.00 10 1015.9
20210917091308 73 174 3.0 3.0 0.00 0.00 0.00 10 1016.0
20210917090807 73 170 3.0 3.0 0.00 0.00 0.00 10 1016.1
20210917090305 73 161 3.0 3.0 0.00 0.00 0.00 10 1015.8
20210917085804 73 165 3.0 5.0 0.00 0.00 0.00 10 1015.7
20210917085305 73 157 4.0 6.0 0.00 0.00 0.00 10 1016.0
20210917084801 74 168 3.0 3.0 0.00 0.00 0.00 10 1015.9
20210917084300 74 169 4.0 5.0 0.00 0.00 0.00 10 1015.8
20210917083757 74 160 4.0 5.0 0.00 0.00 0.00 10 1015.7
20210917083256 74 152 3.0 3.0 0.00 0.00 0.00 10 1015.7
20210917082754 74 169 2.0 3.0 0.00 0.00 0.00 10 1015.9
20210917082254 74 190 2.0 3.0 0.00 0.00 0.00 10 1015.9
20210917081750 74 179 2.0 2.0 0.00 0.00 0.00 10 1015.7
20210917081250 74 205 2.0 2.0 0.00 0.00 0.00 10 1015.9
20210917080748 74 159 3.0 5.0 0.00 0.00 0.00 10 1016.0
20210917080247 75 181 5.0 6.0 0.00 0.00 0.00 10 1015.7
20210917075746 75 186 5.0 6.0 0.00 0.00 0.00 10 1015.8
20210917075245 75 185 3.0 3.0 0.00 0.00 0.00 10 1015.6
20210917074743 75 182 4.0 5.0 0.00 0.00 0.00 10 1015.8
20210917074242 75 171 3.0 3.0 0.00 0.00 0.00 10 1015.7
20210917073742 75 172 5.0 6.0 0.00 0.00 0.00 10 1016.0
20210917073239 75 185 6.0 7.0 0.00 0.00 0.00 10 1015.9
20210917072739 75 189 5.0 7.0 0.00 0.00 0.00 10 1015.9
20210917072238 75 175 5.0 7.0 0.00 0.00 0.00 10 1015.7
20210917071738 75 175 4.0 5.0 0.00 0.00 0.00 10 1015.7
20210917071237 75 154 4.0 5.0 0.00 0.00 0.00 10 1015.9
20210917070733 75 153 2.0 2.0 0.00 0.00 0.00 10 1015.9
20210917070232 75 145 3.0 3.0 0.00 0.00 0.00 10 1015.9
20210917065732 75 126 2.0 3.0 0.00 0.00 0.00 10 1015.9
20210917065231 76 146 2.0 2.0 0.00 0.00 0.00 10 1015.9
20210917064729 76 148 3.0 3.0 0.00 0.00 0.00 10 1016.0
20210917064227 76 190 2.0 3.0 0.00 0.00 0.00 10 1016.1
20210917063726 76 141 3.0 3.0 0.00 0.00 0.00 10 1016.2
20210917063224 76 140 4.0 5.0 0.00 0.00 0.00 10 1016.1
20210917062724 76 160 1.0 2.0 0.00 0.00 0.00 10 1016.1
20210917062222 76 161 2.0 2.0 0.00 0.00 0.00 10 1016.0
20210917061720 77 164 2.0 2.0 0.00 0.00 0.00 10 1016.0
20210917061219 77 170 4.0 5.0 0.00 0.00 0.00 10 1015.8
20210917060717 77 136 3.0 3.0 0.00 0.00 0.00 10 1015.9
20210917060218 77 170 4.0 5.0 0.00 0.00 0.00 10 1015.9
20210917055715 77 156 3.0 3.0 0.00 0.00 0.00 10 1015.7
20210917055213 77 146 3.0 3.0 0.00 0.00 0.00 10 1015.8
20210917054713 77 162 2.0 2.0 0.00 0.00 0.00 10 1015.9
20210917054212 78 164 1.0 2.0 0.00 0.00 0.00 10 1015.8
20210917053711 78 139 4.0 5.0 0.00 0.00 0.00 10 1015.7
20210917053210 78 118 4.0 5.0 0.00 0.00 0.00 10 1015.7
20210917052708 78 157 3.0 3.0 0.00 0.00 0.00 10 1015.7
20210917052208 78 171 3.0 3.0 0.00 0.00 0.00 10 1015.8
20210917051706 78 150 4.0 5.0 0.00 0.00 0.00 10 1015.7
20210917051205 78 153 4.0 5.0 0.00 0.00 0.00 10 1015.9
20210917050703 78 142 2.0 3.0 0.00 0.00 0.00 10 1015.9
20210917050200 78 152 1.0 2.0 0.00 0.00 0.00 10 1015.6
20210917045659 78 130 0.0 0.0 0.00 0.00 0.00 10 1015.8
20210917045157 78 134 1.0 1.0 0.00 0.00 0.00 10 1015.9
20210917044656 78 147 0.0 0.0 0.00 0.00 0.00 10 1015.8
20210917044155 79 139 0.0 0.0 0.00 0.00 0.00 10 1015.7
20210917043654 79 129 0.0 1.0 0.00 0.00 0.00 10 1015.7
20210917043153 79 127 0.0 0.0 0.00 0.00 0.00 10 1015.9
20210917042651 79 133 0.0 0.0 0.00 0.00 0.00 10 1015.8
20210917042149 79 130 0.0 1.0 0.00 0.00 0.00 10 1015.8
20210917041646 80 116 0.0 1.0 0.00 0.00 0.00 10 1015.6
20210917041142 79 104 2.0 2.0 0.00 0.00 0.00 10 1015.8
20210917040641 80 127 0.0 0.0 0.00 0.00 0.00 10 1015.6
20210917040141 80 126 0.0 0.0 0.00 0.00 0.00 10 1015.3
20210917035641 80 126 0.0 0.0 0.00 0.00 0.00 10 1015.7
20210917035139 80 80 0.0 1.0 0.00 0.00 0.00 10 1015.6
20210917034637 80 96 1.0 2.0 0.00 0.00 0.00 10 1015.4
20210917034136 80 109 0.0 1.0 0.00 0.00 0.00 10 1015.4
20210917033635 80 119 1.0 1.0 0.00 0.00 0.00 10 1015.6
20210917033133 80 128 0.0 0.0 0.00 0.00 0.00 10 1015.4
20210917032632 80 96 1.0 1.0 0.00 0.00 0.00 10 1015.4
20210917032130 81 101 2.0 2.0 0.00 0.00 0.00 10 1015.4
20210917031630 81 108 0.0 0.0 0.00 0.00 0.00 10 1015.1
20210917031126 81 99 0.0 1.0 0.00 0.00 0.00 10 1015.0
20210917030626 81 122 1.0 1.0 0.00 0.00 0.00 10 1015.0
20210917030125 81 100 2.0 2.0 0.00 0.00 0.00 10 1015.0
20210917025623 81 104 2.0 2.0 0.00 0.00 0.00 10 1015.2
20210917025121 80 131 0.0 0.0 0.00 0.00 0.00 10 1015.1
20210917024617 80 120 0.0 0.0 0.00 0.00 0.00 10 1014.9
20210917024116 80 112 0.0 1.0 0.00 0.00 0.00 10 1014.8
20210917023610 80 112 0.0 0.0 0.00 0.00 0.00 10 1014.8
20210917023109 81 96 0.0 0.0 0.00 0.00 0.00 10 1014.7
20210917022608 81 89 0.0 1.0 0.00 0.00 0.00 10 1014.8
20210917022106 81 119 0.0 0.0 0.00 0.00 0.00 10 1014.7
20210917021604 81 99 1.0 1.0 0.00 0.00 0.00 10 1014.7
20210917021102 81 111 1.0 2.0 0.00 0.00 0.00 10 1014.6
20210917020602 81 115 1.0 1.0 0.00 0.00 0.00 10 1014.5
20210917020058 81 84 2.0 2.0 0.00 0.00 0.00 10 1014.4
20210917015557 82 108 0.0 0.0 0.00 0.00 0.00 10 1014.3
20210917015057 82 104 0.0 0.0 0.00 0.00 0.00 10 1014.4
20210917014555 82 93 1.0 1.0 0.00 0.00 0.00 10 1014.3
20210917014054 82 108 0.0 0.0 0.00 0.00 0.00 10 1014.3
20210917013553 82 99 0.0 0.0 0.00 0.00 0.00 10 1014.1
20210917013053 82 108 0.0 0.0 0.00 0.00 0.00 10 1014.2
20210917012551 82 95 2.0 2.0 0.00 0.00 0.00 10 1014.0
20210917012050 83 79 1.0 1.0 0.00 0.00 0.00 10 1013.9
20210917011546 82 87 2.0 2.0 0.00 0.00 0.00 10 1014.0
20210917011046 83 78 2.0 3.0 0.00 0.00 0.00 10 1013.9
20210917010544 83 110 0.0 1.0 0.00 0.00 0.00 10 1013.9
20210917010044 84 71 2.0 2.0 0.00 0.00 0.00 10 1013.9
20210917005543 84 52 3.0 3.0 0.00 0.00 0.00 10 1013.8
20210917005041 84 78 2.0 3.0 0.00 0.00 0.00 10 1013.6
20210917004637 84 86 1.0 2.0 0.00 0.00 0.00 10 1013.6
20210917004136 84 87 2.0 2.0 0.00 0.00 0.00 10 1013.5
20210917003634 84 89 3.0 5.0 0.00 0.00 0.00 10 1013.6
20210917003132 85 96 2.0 3.0 0.00 0.00 0.00 10 1013.8
20210917002632 85 69 2.0 2.0 0.00 0.00 0.00 10 1013.7
20210917002130 85 69 3.0 3.0 0.00 0.00 0.00 10 1013.7
20210917001626 86 74 1.0 2.0 0.00 0.00 0.00 10 1013.5
20210917001125 86 73 1.0 2.0 0.00 0.00 0.00 10 1013.6
20210917000624 86 73 3.0 5.0 0.00 0.00 0.00 10 1013.6
20210917000123 86 81 2.0 3.0 0.00 0.00 0.00 10 1013.4
20210916235623 86 95 2.0 2.0 0.00 0.00 0.00 10 1013.6
20210916235121 87 81 3.0 3.0 0.00 0.00 0.00 10 1013.6
20210916234620 87 79 5.0 6.0 0.00 0.00 0.00 10 1013.4
20210916234118 87 71 1.0 1.0 0.00 0.00 0.00 10 1013.6
20210916233617 87 73 1.0 2.0 0.00 0.00 0.00 10 1013.4
20210916233115 87 63 3.0 3.0 0.00 0.00 0.00 10 1013.5
20210916232613 87 65 4.0 6.0 0.00 0.00 0.00 10 1013.5
20210916232110 87 68 7.0 9.0 0.00 0.00 0.00 10 1013.5
20210916231609 87 77 4.0 6.0 0.00 0.00 0.00 10 1013.4
20210916231108 87 125 2.0 3.0 0.00 0.00 0.00 10 1013.5
20210916230607 87 73 5.0 6.0 0.00 0.00 0.00 10 1013.4
20210916230107 88 137 4.0 7.0 0.00 0.00 0.00 10 1013.6
20210916225606 88 96 5.0 7.0 0.00 0.00 0.00 10 1013.5
20210916225105 88 86 6.0 8.0 0.00 0.00 0.00 10 1013.5
20210916224604 88 27 5.0 6.0 0.00 0.00 0.00 10 1013.3
20210916224102 88 65 5.0 8.0 0.00 0.00 0.00 10 1013.8
20210916223600 88 101 5.0 6.0 0.00 0.00 0.00 10 1013.4
20210916223058 87 72 5.0 6.0 0.00 0.00 0.00 10 1013.6
20210916222558 87 77 3.0 5.0 0.00 0.00 0.00 10 1013.6
20210916222057 88 81 5.0 6.0 0.00 0.00 0.00 10 1013.4
20210916221555 88 63 5.0 8.0 0.00 0.00 0.00 10 1013.6
20210916221055 88 73 3.0 5.0 0.00 0.00 0.00 10 1013.5
20210916220540 89 131 2.0 3.0 0.00 0.00 0.00 10 1013.4
20210916220039 89 79 4.0 5.0 0.00 0.00 0.00 10 1013.5
20210916215539 88 87 1.0 1.0 0.00 0.00 0.00 10 1013.4
20210916215037 87 89 0.0 1.0 0.00 0.00 0.00 10 1013.6
20210916214535 88 52 2.0 3.0 0.00 0.00 0.00 10 1013.6
20210916214024 88 119 2.0 2.0 0.00 0.00 0.00 10 1013.4
20210916213524 89 55 6.0 8.0 0.00 0.00 0.00 10 1013.5
20210916213023 89 57 4.0 5.0 0.00 0.00 0.00 10 1013.8
20210916212521 88 94 4.0 5.0 0.00 0.00 0.00 10 1013.7
20210916212020 88 99 6.0 7.0 0.00 0.00 0.00 10 1013.7
20210916211519 88 97 4.0 5.0 0.00 0.00 0.00 10 1013.7
20210916211018 88 73 4.0 5.0 0.00 0.00 0.00 10 1013.9
20210916210517 88 58 4.0 7.0 0.00 0.00 0.00 10 1013.7
20210916210017 88 37 5.0 7.0 0.00 0.00 0.00 10 1013.5
20210916205515 87 83 4.0 6.0 0.00 0.00 0.00 10 1013.7
20210916205013 87 79 7.0 8.0 0.00 0.00 0.00 10 1013.8
20210916204512 87 68 2.0 2.0 0.00 0.00 0.00 10 1013.8
20210916204010 88 89 7.0 8.0 0.00 0.00 0.00 10 1014.0
20210916203508 88 56 5.0 7.0 0.00 0.00 0.00 10 1014.0
20210916203008 87 105 0.0 1.0 0.00 0.00 0.00 10 1014.0
20210916202507 87 107 3.0 3.0 0.00 0.00 0.00 10 1014.2
20210916202006 88 86 4.0 7.0 0.00 0.00 0.00 10 1014.0
20210916201504 87 126 0.0 0.0 0.00 0.00 0.00 10 1014.1
20210916201002 87 105 2.0 2.0 0.00 0.00 0.00 10 1014.3
20210916200501 87 55 3.0 7.0 0.00 0.00 0.00 10 1014.5
20210916200001 87 94 1.0 2.0 0.00 0.00 0.00 10 1014.6
20210916195501 87 92 8.0 10.0 0.00 0.00 0.00 10 1014.6
20210916194959 87 192 3.0 3.0 0.00 0.00 0.00 10 1014.7
20210916194458 86 58 5.0 6.0 0.00 0.00 0.00 10 1014.7
20210916193957 86 90 1.0 2.0 0.00 0.00 0.00 10 1014.6
20210916193456 86 36 4.0 6.0 0.00 0.00 0.00 10 1014.8
20210916192954 86 71 6.0 8.0 0.00 0.00 0.00 10 1014.8
20210916192453 86 132 0.0 1.0 0.00 0.00 0.00 10 1014.8
20210916191952 86 58 4.0 5.0 0.00 0.00 0.00 10 1015.0
20210916191450 86 87 5.0 6.0 0.00 0.00 0.00 10 1014.9
20210916190950 87 52 4.0 5.0 0.00 0.00 0.00 10 1015.1
20210916190449 87 81 7.0 9.0 0.00 0.00 0.00 10 1015.0
20210916185947 87 108 1.0 1.0 0.00 0.00 0.00 10 1015.0
20210916185442 87 114 4.0 6.0 0.00 0.00 0.00 10 1015.2
20210916184941 86 92 3.0 3.0 0.00 0.00 0.00 10 1015.4
20210916184437 86 4 2.0 2.0 0.00 0.00 0.00 10 1015.3
20210916183936 86 61 6.0 7.0 0.00 0.00 0.00 10 1015.8
20210916183435 86 23 3.0 5.0 0.00 0.00 0.00 10 1015.4
20210916182932 86 26 5.0 7.0 0.00 0.00 0.00 10 1015.6
20210916182431 86 72 5.0 6.0 0.00 0.00 0.00 10 1015.7
20210916181931 86 146 3.0 7.0 0.00 0.00 0.00 10 1015.8
20210916181429 85 81 2.0 2.0 0.00 0.00 0.00 10 1015.8
20210916180917 86 96 4.0 6.0 0.00 0.00 0.00 10 1016.0
20210916180417 86 157 3.0 3.0 0.00 0.00 0.00 10 1015.9
20210916175916 85 38 1.0 2.0 0.00 0.00 0.00 10 1016.1
20210916175412 85 58 3.0 5.0 0.00 0.00 0.00 10 1016.2
20210916174911 85 123 5.0 7.0 0.00 0.00 0.00 10 1016.3
20210916174408 84 56 1.0 1.0 0.00 0.00 0.00 10 1016.4
20210916173907 84 90 6.0 7.0 0.00 0.00 0.00 10 1016.3
20210916173405 84 70 4.0 6.0 0.00 0.00 0.00 10 1016.3
20210916172904 84 123 2.0 2.0 0.00 0.00 0.00 10 1016.2
20210916172402 84 109 5.0 6.0 0.00 0.00 0.00 10 1016.5
20210916171901 84 138 3.0 5.0 0.00 0.00 0.00 10 1016.4
20210916171359 83 61 3.0 5.0 0.00 0.00 0.00 10 1016.7
20210916170855 84 96 3.0 3.0 0.00 0.00 0.00 10 1016.7
20210916170353 85 89 4.0 6.0 0.00 0.00 0.00 10 1016.6
20210916165853 84 97 1.0 1.0 0.00 0.00 0.00 10 1016.7
20210916165349 83 122 2.0 7.0 0.00 0.00 0.00 10 1016.8